Flag for Canada Weather past 2 weeks in Pictou County, Nova Scotia, Canada

Now
69 °F

Mild.


Feels Like: 69 °F
Forecast: N/A
Wind: 16 mph from Southwest

Location: Caribou Point

Current Time: Sep 22, 2014 at 7:45:42 PM

Latest Report: Sep 22, 2014 at 7:00 PM


Visibility: N/A

Pressure: 29.54 "Hg

Humidity: 79%

Dew point: 62 °F

Location of Pictou CountyLocation

Historic Weather in Pictou County — Graph

°F

Pictou County temperature yesterday

Maximum temperature yesterday: 77 °F (at 3:00 PM)
Minimum temperature yesterday: 54 °F (at 4:00 AM)
Average temperature yesterday: 65 °F

Past Weeks' High & Low Weather Summary

 TemperatureHumidityPressure
High79 °F (Sep 22, 3:00 PM)99% (Sep 14, 6:00 PM)30.49 "Hg (Sep 14, 6:00 PM)
Low41 °F (Sep 20, 2:00 AM)42% (Sep 18, 1:00 PM)29.32 "Hg (Sep 22, 7:00 AM)
Average59 °F73%30.06 "Hg
* Reported Sep 7 6:00 PM — Sep 22 6:00 PM, Pictou County, Weather by CustomWeather, © 2014

Note: Actual official high and low records may vary slightly from our data, if they occured in-between our weather recording intervals... More about our weather records

Advertising

Pictou County weather history for previous 24 hours

 ConditionsComfort  
Time TempWeatherWind HumidityBarometerVisibility
6:00 PM
Sep 22
74 °FMild.12 mph66%29.52 "HgN/A
5:00 PM77 °FMild.13 mph64%29.50 "HgN/A
4:00 PM78 °FWarm.10 mph63%29.49 "HgN/A
3:00 PM79 °FWarm.10 mph64%29.49 "HgN/A
2:00 PM76 °FMild.8 mph72%29.49 "HgN/A
1:00 PM75 °FMild.9 mph73%29.48 "HgN/A
12:00 PM70 °FMild.10 mph89%29.45 "HgN/A
11:00 AM72 °FMild.12 mph86%29.42 "HgN/A
10:00 AM70 °FMild.8 mph91%29.40 "HgN/A
9:00 AM68 °FMild.7 mph94%29.38 "HgN/A
8:00 AM70 °FMild.13 mph95%29.36 "HgN/A
7:00 AM70 °FMild.28 mph93%29.32 "HgN/A
6:00 AM70 °FMild.33 mph92%29.35 "HgN/A
5:00 AM69 °FMild.23 mph94%29.43 "HgN/A
4:00 AM69 °FMild.29 mph93%29.49 "HgN/A
3:00 AM68 °FMild.17 mph95%29.56 "HgN/A
2:00 AM68 °FMild.18 mph94%29.65 "HgN/A
1:00 AM68 °FMild.13 mph94%29.70 "HgN/A
12:00 AM65 °FMild.13 mph94%29.75 "HgN/A
11:00 PM
Sep 21
65 °FMild.13 mph92%29.82 "HgN/A
10:00 PM68 °FMild.17 mph88%29.86 "HgN/A
9:00 PM69 °FMild.15 mph87%29.89 "HgN/A
8:00 PM70 °FMild.13 mph80%29.91 "HgN/A
7:00 PM71 °FMild.12 mph78%29.92 "HgN/A
Weather by CustomWeather, © 2014

See weather overviewHow to use our weather pages